Location: Dos Palmas
(32.4468°N, 116.8732°W)
Time: 02:22:20
(UTC+00:00)

IRS-1D - Pass Details

Date: 20 June 2021
Orbit: 739 x 817 km, 98.6° (Epoch: 27 July)

Event Time Altitude Azimuth Distance (km) Brightness Sun altitude
Rises 10:25:21 0° 7° (N) 3,253 7.7 -22.8°
Reaches altitude 10° 10:27:43 10° 3° (N) 2,310 6.7 -22.5°
Maximum altitude 10:32:40 55° 286° (WNW) 903 3.7 -21.8°
Enters shadow 10:33:35 48° 247° (WSW) 983 3.6 -21.7°
